Zurück zum Katalog

STARLINK-35886

AktivKommunikationVLEO
NORAD 66838·PAYLOAD·🇺🇸 United States

Gestartet Dec 2, 2025 von Vandenberg Space Force Base

Loading…

Nächste Überflüge (nächste 24 Stunden)

TLE

AktuellSource: CelesTrak SupGP

Epoche: Sep 15, 2026, 03:14 UTC

1 66838C 25280T   26258.13520833 -.00020790  00000+0 -17423-2 0  2582
2 66838  70.0013 216.6809 0003005 271.4877 165.4326 14.98340591    12

Verfolge STARLINK-35886 in Echtzeit mit AllMySat

Download on the App Store